Location: Bussy-Saint-Georges
(48.8410°N, 2.7017°E)
Time: 02:38:19
(UTC+00:00)

SJ-6B - Pass Details

Date: 18 October 2021
Orbit: 509 x 579 km, 97.5° (Epoch: 30 November)

Event Time Altitude Azimuth Distance (km) Brightness Sun altitude
Exits shadow 19:09:26 24° 10° (N) 1,144 4.4 -23.0°
Drops below altitude 10° 19:11:08 10° 358° (N) 1,787 5.6 -23.3°
Sets 19:13:17 0° 352° (N) 2,671 6.6 -23.6°
